| time (UTC) | temp C | wind direction | speed KPH | gust KPH | rain 1hr cm | rain 24hr cm | rain mn cm | humidity % | barometer mb |
| 20260507030017 | 13 | 0.0 | 14.5 | 0.03 | 0.53 | 0.53 | 87 | 1009.2 | |
| 20260507023017 | 14 | 0.0 | 19.3 | 0.03 | 0.53 | 0.53 | 85 | 1009.0 | |
| 20260507020017 | 16 | 0.0 | 12.9 | 0.00 | 0.51 | 0.51 | 88 | 1009.2 | |
| 20260507013017 | 16 | 0.0 | 8.0 | 0.00 | 0.51 | 0.51 | 92 | 1008.8 | |
| 20260507010017 | 16 | 0.0 | 0.0 | 0.00 | 0.51 | 0.51 | 92 | 1008.6 | |
| 20260507003037 | 17 | 0.0 | 1.6 | 0.05 | 0.51 | 0.51 | 91 | 1007.9 | |
| 20260507000037 | 17 | 0.0 | 9.7 | 0.05 | 0.51 | 0.51 | 88 | 1007.8 | |
| 20260506233018 | 18 | 0.0 | 4.8 | 0.00 | 0.46 | 0.46 | 87 | 1007.2 | |
| 20260506230017 | 19 | 0.0 | 4.8 | 0.00 | 0.46 | 0.46 | 85 | 1007.0 | |
| 20260506223017 | 19 | 225 | 1.6 | 9.7 | 0.00 | 0.46 | 0.46 | 84 | 1007.0 |
| 20260506220017 | 19 | 225 | 1.6 | 14.5 | 0.00 | 0.46 | 0.46 | 84 | 1006.5 |
| 20260506213017 | 19 | 0.0 | 12.9 | 0.00 | 0.46 | 0.46 | 85 | 1006.6 | |
| 20260506210017 | 18 | 225 | 1.6 | 11.3 | 0.00 | 0.46 | 0.46 | 86 | 1006.3 |
| 20260506203017 | 18 | 225 | 1.6 | 14.5 | 0.00 | 0.46 | 0.46 | 87 | 1006.4 |
| 20260506200017 | 17 | 225 | 1.6 | 11.3 | 0.00 | 0.46 | 0.46 | 89 | 1006.3 |
| 20260506193017 | 17 | 225 | 1.6 | 16.1 | 0.00 | 0.46 | 0.46 | 90 | 1006.6 |
| 20260506190019 | 16 | 225 | 1.6 | 14.5 | 0.00 | 0.46 | 0.46 | 92 | 1006.9 |
| 20260506183017 | 16 | 225 | 4.8 | 22.5 | 0.00 | 0.46 | 0.46 | 91 | 1007.2 |
| 20260506180017 | 16 | 203 | 3.2 | 20.9 | 0.03 | 0.46 | 0.46 | 91 | 1007.4 |
| 20260506173017 | 16 | 0.0 | 19.3 | 0.03 | 0.46 | 0.46 | 92 | 1007.3 | |
| 20260506170017 | 16 | 203 | 1.6 | 16.1 | 0.05 | 0.43 | 0.43 | 91 | 1007.6 |
| 20260506163017 | 16 | 203 | 4.8 | 24.1 | 0.13 | 0.43 | 0.43 | 90 | 1007.7 |
| 20260506160015 | 16 | 180 | 3.2 | 12.9 | 0.20 | 0.38 | 0.38 | 91 | 1007.4 |
| 20260506153018 | 16 | 203 | 1.6 | 14.5 | 0.18 | 0.30 | 0.30 | 91 | 1008.5 |
| 20260506150017 | 16 | 225 | 1.6 | 19.3 | 0.13 | 0.18 | 0.18 | 89 | 1008.4 |
| 20260506143017 | 17 | 203 | 1.6 | 11.3 | 0.10 | 0.13 | 0.13 | 88 | 1008.3 |
| 20260506140037 | 17 | 0.0 | 1.6 | 0.05 | 0.05 | 0.05 | 86 | 1008.5 | |
| 20260506133017 | 17 | 0.0 | 8.0 | 0.03 | 0.03 | 0.03 | 85 | 1008.6 | |
| 20260506130017 | 17 | 225 | 1.6 | 17.7 | 0.00 | 0.00 | 0.00 | 81 | 1008.7 |
| 20260506123017 | 18 | 225 | 3.2 | 16.1 | 0.00 | 0.00 | 0.00 | 78 | 1008.8 |
| 20260506120016 | 18 | 225 | 3.2 | 19.3 | 0.00 | 0.00 | 0.00 | 75 | 1008.5 |
| 20260506113018 | 18 | 203 | 3.2 | 16.1 | 0.00 | 0.00 | 0.00 | 75 | 1008.5 |
| 20260506110018 | 18 | 203 | 4.8 | 20.9 | 0.00 | 0.00 | 0.00 | 74 | 1008.5 |
| 20260506103017 | 19 | 203 | 6.4 | 22.5 | 0.00 | 0.00 | 0.00 | 72 | 1008.1 |
| 20260506100018 | 19 | 203 | 4.8 | 27.4 | 0.00 | 0.00 | 0.00 | 71 | 1008.0 |
| 20260506093018 | 20 | 203 | 4.8 | 22.5 | 0.00 | 0.00 | 0.00 | 70 | 1007.9 |
| 20260506090017 | 20 | 203 | 4.8 | 22.5 | 0.00 | 0.00 | 0.00 | 68 | 1008.0 |
| 20260506083018 | 20 | 203 | 4.8 | 20.9 | 0.00 | 0.00 | 0.00 | 66 | 1008.2 |
| 20260506073016 | 20 | 203 | 1.6 | 9.7 | 0.00 | 0.00 | 0.00 | 63 | 1008.3 |
| 20260506043016 | 20 | 0.0 | 9.7 | 0.00 | 0.00 | 0.00 | 56 | 1009.5 | |
| 20260506040036 | 21 | 203 | 1.6 | 8.0 | 0.00 | 0.00 | 0.00 | 54 | 1009.4 |
| 20260506033038 | 21 | 0.0 | 11.3 | 0.00 | 0.00 | 0.00 | 53 | 1009.5 |